Location: Newark
(50.4348°N, 30.5552°E)
Time: 11:54:44
(UTC+00:00)

Envisat - Pass Details

Date: 10 December 2019
Orbit: 764 x 766 km, 98.1° (Epoch: 18 January)

Event Time Altitude Azimuth Distance (km) Brightness Sun altitude
Rises 15:56:36 0° 171° (S) 3,222 6.3 -18.4°
Reaches altitude 10° 15:58:54 10° 174° (S) 2,300 5.6 -18.8°
Maximum altitude 16:03:57 68° 258° (WSW) 825 3.3 -19.6°
Drops below altitude 10° 16:09:03 10° 341° (NNW) 2,317 5.6 -20.3°
Sets 16:11:23 0° 345° (NNW) 3,247 6.3 -20.7°
